Location: Newark
(39.8850°N, 17.2769°E)
Time: 07:26:50
(UTC+00:00)

Hubble Space Telescope - Pass Details

Date: 21 November 2019
Orbit: 536 x 540 km, 28.5° (Epoch: 14 December)

Event Time Altitude Azimuth Distance (km) Brightness Sun altitude
Rises 16:04:02 0° 217° (SW) 2,663 5.4 -6.7°
Reaches altitude 10° 16:08:01 10° 179° (S) 1,776 3.7 -7.4°
Maximum altitude 16:09:01 11° 165° (SSE) 1,730 3.4 -7.6°
Drops below altitude 10° 16:10:00 10° 151° (SSE) 1,777 3.3 -7.7°
Enters shadow 16:13:24 - 116° (ESE) 2,490 3.7 -8.4°
